STARLINK-1570, 46059

Orbit data source: Space-Track

STARLINK-1570, 46059 is a payload satellite owned by SpaceX/Seattle (US) in LEO that was launched on Fri, 07 Aug 2020 UTC via an FALCON 9 launch vehicle from the Air Force Eastern Test Range (AFETR). Payloads include a variety of satellites, spacecraft, and rockets equipped with specific instruments for various scientific and technological missions. These include communications satellites like Starlink; space stations such as the ISS; scientific satellites like the Hubble; Earth observation satellites from companies like Planet Labs, Umbra, and HawkEye 360; GPS; miniature CubeSats for education and research; and military/defense satellites.

Loading next visibility...
STARLINK-1570 details
Identifier
46059, 2020-055AJ
Orbit
LEO
Last TLE update8 hours ago
Origin
Flag of USSpaceX/Seattle (US)
ManufacturerSpaceX/Seattle
MissionOperational Commercial Communications
Bus & MotorSTARLINK, Unknown motor
Mass260 kg wet, ~248 kg dry
Launch date (UTC)
2020-08-07 (4 years ago)
Launch vehicle
FALCON 9
Launch site
Air Force Eastern Test Range (AFETR)
Object type
Payload
Rocket body
Debris
Shape & HBRBox + 1 Pan, 8.86 m
Radar Cross Section13.562 m², Large (>1 m²)

Expand to show TLE details & history

TLE from 8 hours ago
0 STARLINK-1570
1 46059U 20055AJ  24361.10305894  .00012454  00000-0  85360-3 0  9993
2 46059  53.0547 285.5135 0001549 101.9277 258.1885 15.06394370242390
Epoch: 2024-12-26T02:28Z
Definitive object data (Epoch: 2024-12-26T02:28:24.292Z)
Latitude-0.00007°
Longitude153.32496°
Altitude548.328 km
Speed7.589 km/s
True Right ascension19h 02m 03s
True Declination0° 00' 00"
Sunlit
Object was in daylight at TLE epoch
Visualization TLE readout
Latitude30.84092°
Longitude178.32732°
Altitude548.543 km
Speed7.592 km/s
Apparent Right ascension21h 16m 14s
Apparent Declination-2° 52' 55"
Sunlit
Object is in daylight
Visualization observer readout
Local Sidereal Time09:57:50
Azimuth16.945° NNE
Elevation-51.785°
Doppler factor1
Orbital elements
Apogee altitude548.572 km
Perigee altitude546.427 km
Semi-major axis6,925.637 km
Eccentricity0.0001549
Inclination53.0547°
RAAN285.5135°
Arg. of periapsis101.9277°
True anomaly258.17113°
Mean anomaly258.1885°
Eccentric anomaly258.17981°
Mean motion3.76577 °/min
BSTAR0.0008536
Orbital period95.6 mins
Loading maneuver chart data...
Loading historical data...
Loading historical data...
Loading historical data...
Loading historical data...
Loading historical data...
Loading historical data...
Loading historical data...

STARLINK-1570 Visibility forecast

Observer location: undefined°, undefined

Span
Click to sort rows by Start time (UTC) header in descending order
Start Az.
Max El. time (UTC)
Max El. Az.
Max El.
End time (UTC)
End Az.
7 mins2024-12-26 21:44:37.688Z221.655° SW2024-12-26 21:48:37.688Z127.947° SE43.642°2024-12-26 21:51:37.688Z55.323° ENE
5 mins2024-12-26 23:26:37.688Z299.277° NW2024-12-26 23:28:37.688Z340.859° N21.749°2024-12-26 23:31:37.688Z29.646° NE
4 mins2024-12-27 02:48:37.688Z353.533° N2024-12-27 02:49:37.688Z11.785° NNE17.768°2024-12-27 02:52:37.688Z62.068° ENE
6 mins2024-12-27 04:27:37.688Z317.198° NNW2024-12-27 04:29:37.688Z349.305° N41.721°2024-12-27 04:33:37.688Z122.209° SE
|